Flag for U.S.A. Weather past 2 weeks in Bloomington, Illinois, U.S.A.

Now
66 °F

Passing clouds.


Feels Like: 66 °F
Forecast: 44 / 63 °F
Wind: 13 mph from Northwest

Location: Bloomington / Normal

Current Time: Mar 31, 2015 at 5:42:32 PM

Latest Report: Mar 31, 2015 at 4:56 PM


Visibility: 10 mi

Pressure: 29.93 "Hg

Humidity: 32%

Dew point: 35 °F

Location of BloomingtonLocation

Historic Weather in Bloomington — Graph

°F

Bloomington temperature yesterday

Maximum temperature yesterday: 65 °F (at 3:56 PM)
Minimum temperature yesterday: 37 °F (at 5:56 AM)
Average temperature yesterday: 52 °F

Past Weeks' High & Low Weather Summary

 TemperatureHumidityPressure
High75 °F (Mar 16, 3:56 PM)100% (Mar 21, 12:56 AM)30.40 "Hg (Mar 21, 12:56 AM)
Low19 °F (Mar 28, 4:56 AM)26% (Mar 30, 3:56 PM)29.80 "Hg (Mar 31, 3:56 AM)
Average40 °F70%30.15 "Hg
* Reported Mar 16 3:56 PM — Mar 31 3:56 PM, Bloomington, Weather by CustomWeather, © 2015

Note: Actual official high and low records may vary slightly from our data, if they occured in-between our weather recording intervals... More about our weather records

Advertising

Bloomington weather history for previous 24 hours

 ConditionsComfort  
Time TempWeatherWind HumidityBarometerVisibility
3:56 PM
Tue, Mar 31
65 °FScattered clouds.15 mph33%29.94 "Hg10 mi
2:56 PM65 °FScattered clouds.13 mph36%29.95 "Hg10 mi
1:56 PM64 °FSunny.16 mph36%29.95 "Hg10 mi
12:56 PM63 °FSunny.16 mph38%29.96 "Hg10 mi
11:56 AM60 °FSunny.13 mph46%29.96 "Hg10 mi
10:56 AM58 °FSunny.13 mph51%29.96 "Hg10 mi
9:56 AM54 °FSunny.14 mph59%29.93 "Hg10 mi
8:56 AM51 °FSunny.14 mph61%29.91 "Hg10 mi
7:56 AM51 °FSunny.17 mph59%29.88 "Hg10 mi
6:56 AM48 °FClear.13 mph64%29.85 "Hg10 mi
5:56 AM47 °FClear.9 mph63%29.83 "Hg10 mi
4:56 AM49 °FClear.16 mph59%29.80 "Hg10 mi
3:56 AM47 °FClear.14 mph63%29.80 "Hg10 mi
2:56 AM47 °FClear.16 mph71%29.80 "Hg10 mi
1:56 AM49 °FClear.16 mph63%29.83 "Hg10 mi
12:56 AM51 °FClear.17 mph59%29.85 "Hg10 mi
11:56 PM
Mon, Mar 30
53 °FClear.18 mph53%29.88 "Hg10 mi
10:56 PM53 °FPassing clouds.18 mph53%29.90 "Hg10 mi
9:56 PM52 °FPassing clouds.18 mph55%29.93 "Hg10 mi
8:56 PM52 °FClear.12 mph57%29.98 "Hg10 mi
7:56 PM59 °FScattered clouds.10 mph42%29.97 "Hg10 mi
6:56 PM62 °FSunny.13 mph35%29.95 "Hg10 mi
5:56 PM64 °FSunny.13 mph30%29.97 "Hg10 mi
Weather by CustomWeather, © 2015

See weather overviewHow to use our weather pages